Погода в Новозареченске

Россия / Республика Татарстан     54°09′52″N   53°25′48″E
темп.,
°C
ветер,
м/с
пор.,
м/с
влажн.,
%
обл.,
%
осадки,
мм/ч
давл.,
гПа
погр.,
м
20 января, ср
ср2000:00−20юз239988 0.0 101431
03:00−22юз359994 0.1 1015122
06:00−25юз239999 0.0 101524
09:00−23юз389796 0.1 1017241
12:00−20юз479599 0.0 1017350
15:00−20юз4895100 0.0 1018376
18:00−22юз3797100 0.1 1018236
21:00−23юз3798100 0.1 1019216
21 января, чт
чт2100:00−22юз369897 0.1 1019193
03:00−21ююз379899 0.3 1019209
06:00−21юз4798100 0.2 1019241
09:00−20юз5997100 0.6 1020288
12:00−18юз5895100 0.3 1020309
15:00−18юз5895100 0.4 1018303
18:00−17юз5995100 0.3 1018344
21:00−15юз4895100 0.6 1018320
22 января, пт
пт2200:00−14юз4895100 0.3 1018313
03:00−13юз3796100 0.8 1017237
06:00−13юз3696100 0.4 1017203
09:00−13зюз3695100 0.8 1018221
12:00−12з3593100 0.3 1019383
15:00−13зсз2496100 0.4 1020157
18:00−17сз2298100 0.1 102220
21:00−21ссв2210099 0.1 102520
23 января, сб
сб2300:00−24всв1110093 0.0 102720
03:00−24юв119996 0.0 102820
06:00−22ююв229686 0.0 102920
09:00−18ююв489493 0.0 1029263
12:00−14ю61195100 0.3 1028379
15:00−13ю81494100 1.0 1026435
18:00−12ю81394100 0.9 1026431
21:00−11ю71294100 1.4 1024338
24 января, вс
вс2400:00−9ю51095100 0.8 1024319
03:00−5ююз51096100 2.0 1023320
06:00+1зюз61199100 0.6 1023465
09:00+1юз51099100 0.8 1023381
12:00+1зюз511100100 0.0 1024383
15:000юз61197100 0.1 1025402
18:00−2юз61295100 0.3 1026381
21:00−2юз61295100 0.9 1027477